Погода в Чистопрудном

Россия / Курганская область     56°00′59″N   63°55′12″E
темп.,
°C
ветер,
м/с
пор.,
м/с
влажн.,
%
обл.,
%
осадки,
мм/ч
давл.,
гПа
погр.,
м
24 января, вс
вс2423:00−32ю2393100 0.0 104042
02:00−31ююв3394100 0.0 103967
05:00−31ююв349477 0.0 104071
08:00−31ююв4795100 0.0 1039136
11:00−26ююв589699 0.0 1038250
14:00−24ююв5896100 0.0 1037324
17:00−23ююв61096100 0.1 1035342
20:00−21ююв61098100 0.9 1032377
25 января, пн
пн2523:00−18ю5996100 2.0 1031398
02:00−17ю3796100 0.3 1029238
05:00−14ю2296100 0.4 102867
08:00−14ююз1196100 0.1 102820
11:00−13в009598 0.1 102920
14:00−10юз009477 0.0 102854
17:00−9в119677 0.3 102924
20:00−6ю2396100 0.5 102988
26 января, вт
вт2623:00−2з41091100 0.5 1029298
02:00−3зюз4895100 0.0 1028222
05:00−2з5109695 0.1 1027362
08:00−2зюз6119499 0.1 1028407
11:00−2з5119097 0.4 1028487
14:00−2зюз6109093 0.0 1028478
17:00−5зюз4109043 0.0 1028223
20:00−7зюз479377 0.0 1029143
27 января, ср
ср2723:00−6зюз499282 0.0 1028163
02:00−6юз4991100 0.0 1027198
05:00−6зюз51089100 0.0 1027207
08:00−6юз4988100 0.0 1027176
11:00−4зюз51085100 0.0 1026238
14:00−3юз4887100 0.0 1026265
17:00−4юз51091100 0.0 1025240
20:00−6зюз5118966 0.0 1026236
28 января, чт
чт2823:00−6з4108964 0.0 1027202
02:00−9з34920 0.0 102870
05:00−11зюз34930 0.0 102949
08:00−11зюз239135 0.0 102921
11:00−8ююз379045 0.0 1029172
14:00−5ююз478764 0.0 1028245
17:00−7ююз488882 0.0 1027151
20:00−5ююз61386100 0.0 1028301